GW0500 Weather Reports


time (UTC)temp
C
wind
direction
speed
KPH
gust
KPH
rain 1hr
cm
rain 24hr
cm
rain mn
cm
humidity
%
barometer
mb
20260507094550 9 342 0.0 3.2 0.00 0.08 0.03 78 1020.2
20260507094045 9 0 0.0 3.2 0.00 0.08 0.03 79 1020.2
20260507093548 9 342 0.0 3.2 0.00 0.08 0.03 78 1020.2
20260507093055 9 0 0.0 3.2 0.00 0.08 0.03 78 1020.2
20260507092548 9 0 0.0 3.2 0.00 0.08 0.03 78 1020.2
20260507092050 9 342 0.0 3.2 0.00 0.08 0.03 79 1020.3
20260507091558 9 0 0.0 1.6 0.00 0.08 0.03 79 1020.3
20260507091048 9 0 0.0 1.6 0.00 0.08 0.03 79 1020.3
20260507090548 9 0 0.0 0.0 0.00 0.08 0.03 79 1020.5
20260507090050 9 0 0.0 1.6 0.00 0.08 0.03 80 1020.5
20260507085547 9 0 0.0 1.6 0.00 0.08 0.03 80 1020.5
20260507085049 9 0 0.0 1.6 0.00 0.08 0.03 80 1020.6
20260507084553 9 0 0.0 0.0 0.00 0.08 0.03 79 1020.6
20260507084045 9 0 0.0 1.6 0.00 0.08 0.03 79 1020.6
20260507083547 10 0 0.0 1.6 0.00 0.08 0.03 81 1020.6
20260507083053 10 0 0.0 1.6 0.00 0.08 0.03 79 1020.6
20260507082551 10 0 0.0 1.6 0.00 0.08 0.03 78 1020.7
20260507082045 9 0 0.0 1.6 0.00 0.08 0.03 78 1020.7
20260507081551 9 342 0.0 1.6 0.03 0.08 0.03 79 1020.7
20260507081048 9 0 0.0 3.2 0.03 0.08 0.03 80 1020.7
20260507080546 8 0 0.0 3.2 0.03 0.08 0.03 82 1020.8
20260507080056 8 0 0.0 1.6 0.03 0.08 0.03 82 1020.8
20260507075548 8 0 0.0 1.6 0.03 0.10 0.03 84 1020.8
20260507075048 8 0 0.0 1.6 0.03 0.10 0.03 84 1020.9
20260507074556 8 0 0.0 0.0 0.03 0.10 0.03 84 1020.9
20260507074046 8 0 0.0 0.0 0.03 0.10 0.03 84 1020.9
20260507073548 8 0 0.0 0.0 0.03 0.10 0.03 84 1020.9
20260507073101 8 0 0.0 0.0 0.03 0.10 0.03 83 1020.9
20260507072547 8 0 0.0 0.0 0.03 0.10 0.03 83 1021.0
20260507072048 8 0 0.0 0.0 0.03 0.10 0.03 83 1021.0
20260507071558 8 0 0.0 0.0 0.00 0.08 0.00 83 1021.1
20260507071047 8 0 0.0 0.0 0.00 0.08 0.00 83 1021.1
20260507070547 8 0 0.0 0.0 0.00 0.08 0.00 84 1021.2
20260507065549 8 0 0.0 0.0 0.00 0.08 0.08 85 1021.3
20260507065044 8 0 0.0 0.0 0.00 0.08 0.08 85 1021.3
20260507064559 9 0 0.0 0.0 0.00 0.08 0.08 84 1021.3
20260507064047 9 0 0.0 0.0 0.00 0.08 0.08 83 1021.3
20260507063550 9 0 0.0 0.0 0.00 0.08 0.08 83 1021.4
20260507063104 9 0 0.0 1.6 0.00 0.08 0.08 83 1021.4
20260507062546 9 0 0.0 1.6 0.00 0.08 0.08 82 1021.3
20260507062046 10 342 0.0 0.0 0.00 0.08 0.08 82 1021.4
20260507061558 10 0 0.0 1.6 0.00 0.08 0.08 81 1021.3
20260507061048 10 0 0.0 1.6 0.00 0.08 0.08 81 1021.2
20260507060545 10 0 0.0 1.6 0.00 0.08 0.08 82 1021.3
20260507060058 10 0 0.0 1.6 0.00 0.08 0.08 82 1021.1
20260507055547 10 0 0.0 3.2 0.00 0.08 0.08 81 1021.1
20260507055047 10 342 0.0 3.2 0.00 0.08 0.08 81 1021.1
20260507054601 10 342 0.0 3.2 0.00 0.08 0.08 80 1021.2
20260507054047 10 342 0.0 3.2 0.00 0.08 0.08 80 1021.4
20260507053547 11 342 0.0 3.2 0.00 0.08 0.08 79 1021.3
20260507053059 11 342 0.0 4.8 0.00 0.08 0.08 80 1021.3
20260507052546 11 342 0.0 4.8 0.00 0.08 0.08 78 1021.3
20260507052047 11 324 0.0 6.4 0.00 0.08 0.08 77 1021.4
20260507051558 11 0 0.0 6.4 0.00 0.08 0.08 78 1021.4
20260507051046 11 5 0.0 3.2 0.00 0.08 0.08 79 1021.4
20260507050547 11 0 0.0 3.2 0.00 0.08 0.08 78 1021.4
20260507050056 11 0 0.0 3.2 0.00 0.08 0.08 80 1021.4
20260507045551 11 0 0.0 3.2 0.00 0.08 0.08 80 1021.4
20260507045046 11 5 0.0 3.2 0.00 0.08 0.08 81 1021.3
20260507044601 11 0 0.0 3.2 0.00 0.08 0.08 80 1021.3
20260507044043 11 5 0.0 4.8 0.00 0.08 0.08 81 1021.3
20260507043547 11 5 0.0 4.8 0.00 0.08 0.08 82 1021.3
20260507043059 10 5 0.0 4.8 0.00 0.08 0.08 83 1021.2
20260507042544 10 0 0.0 3.2 0.00 0.08 0.08 85 1021.1
20260507042047 10 0 0.0 3.2 0.00 0.08 0.08 85 1021.1
20260507041559 10 0 0.0 1.6 0.00 0.08 0.08 86 1021.1
20260507041045 10 0 0.0 1.6 0.00 0.08 0.08 86 1021.1
20260507040549 10 0 0.0 1.6 0.00 0.08 0.08 87 1021.1
20260507040054 10 0 0.0 1.6 0.00 0.08 0.08 87 1021.1
20260507035547 10 0 0.0 3.2 0.00 0.10 0.08 88 1020.9
20260507035047 10 0 0.0 3.2 0.00 0.10 0.08 88 1020.9
20260507034606 10 0 0.0 3.2 0.00 0.10 0.08 88 1020.8
20260507034044 10 0 0.0 3.2 0.00 0.10 0.08 88 1020.7
20260507033547 10 0 0.0 3.2 0.00 0.10 0.08 88 1020.7
20260507033056 10 0 0.0 1.6 0.00 0.10 0.08 88 1020.6
20260507032544 10 0 0.0 0.0 0.00 0.10 0.08 88 1020.6
20260507032046 10 0 0.0 1.6 0.00 0.10 0.08 88 1020.6
20260507031559 10 0 0.0 1.6 0.00 0.10 0.08 88 1020.6
20260507031044 11 0 0.0 1.6 0.00 0.10 0.08 88 1020.6
20260507030550 11 0 0.0 0.0 0.00 0.10 0.08 87 1020.5
20260507030101 11 0 0.0 0.0 0.00 0.10 0.08 88 1020.6
20260507025548 11 0 0.0 1.6 0.00 0.10 0.08 87 1020.6
20260507025047 11 0 0.0 1.6 0.00 0.10 0.08 87 1020.5
20260507024558 11 0 0.0 1.6 0.00 0.10 0.08 87 1020.5
20260507024045 11 0 0.0 1.6 0.00 0.10 0.08 86 1020.4
20260507023545 12 0 0.0 0.0 0.00 0.10 0.08 86 1020.4
20260507023056 12 0 0.0 0.0 0.00 0.10 0.08 86 1020.4
20260507022545 12 0 0.0 0.0 0.00 0.10 0.08 84 1020.5
20260507022046 12 0 0.0 0.0 0.00 0.10 0.08 84 1020.5
20260507021557 12 0 0.0 0.0 0.00 0.10 0.08 84 1020.4
20260507021047 12 0 0.0 0.0 0.00 0.10 0.08 83 1020.3
20260507020547 13 0 0.0 0.0 0.00 0.10 0.08 82 1020.4
20260507020055 13 0 0.0 1.6 0.00 0.10 0.08 82 1020.3
20260507015546 13 0 0.0 1.6 0.00 0.10 0.08 81 1020.2
20260507015046 13 0 0.0 0.0 0.00 0.10 0.08 81 1020.3
20260507014556 13 0 0.0 1.6 0.00 0.10 0.08 80 1020.3
20260507014046 14 0 0.0 3.2 0.00 0.10 0.08 78 1020.3
20260507013547 14 0 0.0 9.7 0.00 0.10 0.08 77 1020.2
20260507013101 15 0 0.0 9.7 0.00 0.10 0.08 77 1020.2
20260507012547 15 190 0.0 6.4 0.00 0.10 0.08 76 1020.2
20260507012047 15 0 0.0 6.4 0.00 0.10 0.08 75 1020.1
20260507011556 15 0 1.6 6.4 0.00 0.10 0.08 74 1020.2
20260507011051 15 195 1.6 8.0 0.00 0.10 0.08 74 1020.2
20260507010547 15 224 1.6 9.7 0.00 0.10 0.08 73 1020.0
20260507010047 16 236 1.6 11.3 0.00 0.10 0.08 72 1020.0
20260507005547 16 0 3.2 12.9 0.00 0.13 0.08 72 1020.0
20260507005046 16 231 4.8 12.9 0.00 0.13 0.08 71 1020.0
20260507004550 16 181 1.6 6.4 0.00 0.13 0.08 70 1020.0
20260507004047 16 0 1.6 6.4 0.00 0.13 0.08 69 1020.0
20260507003550 17 0 0.0 6.4 0.00 0.13 0.08 69 1019.9
20260507003051 17 0 0.0 8.0 0.00 0.13 0.08 68 1019.9
20260507002546 17 161 3.2 8.0 0.00 0.13 0.08 67 1019.9
20260507002046 17 205 1.6 6.4 0.00 0.13 0.08 66 1019.7
20260507001552 17 205 1.6 11.3 0.00 0.13 0.08 66 1019.7
20260507001045 17 209 3.2 11.3 0.00 0.13 0.08 66 1019.7
20260507000551 17 211 3.2 11.3 0.00 0.13 0.08 65 1019.6
20260507000053 17 205 4.8 16.1 0.00 0.13 0.08 64 1019.6
20260506235547 17 156 3.2 16.1 0.00 0.13 0.08 65 1019.5
20260506235050 17 0 1.6 9.7 0.00 0.13 0.08 64 1019.4
20260506234555 17 151 3.2 12.9 0.00 0.13 0.08 66 1019.5
20260506234051 17 157 4.8 12.9 0.00 0.13 0.08 64 1019.5
20260506233547 17 188 3.2 11.3 0.00 0.13 0.08 63 1019.4
20260506233052 17 145 3.2 11.3 0.00 0.13 0.08 64 1019.5
20260506232549 18 172 4.8 11.3 0.00 0.13 0.08 62 1019.5
20260506232044 18 177 1.6 8.0 0.00 0.13 0.08 61 1019.5
20260506231651 18 271 1.6 9.7 0.00 0.13 0.08 61 1019.5
20260506231048 18 159 3.2 9.7 0.00 0.13 0.08 61 1019.5
20260506230546 18 190 1.6 11.3 0.00 0.13 0.08 60 1019.5
20260506230056 18 38 1.6 11.3 0.00 0.13 0.08 61 1019.5
20260506225548 18 158 1.6 8.0 0.00 0.15 0.08 61 1019.6
20260506225047 18 138 3.2 11.3 0.00 0.15 0.08 58 1019.6
20260506224601 18 155 3.2 11.3 0.00 0.15 0.08 58 1019.5
20260506224118 18 191 3.2 11.3 0.00 0.15 0.08 59 1019.6
20260506224047 18 191 3.2 11.3 0.00 0.15 0.08 59 1019.6
20260506223547 18 148 3.2 11.3 0.00 0.15 0.08 57 1019.7
20260506223049 18 195 3.2 9.7 0.00 0.15 0.08 54 1019.7
20260506222550 18 148 3.2 9.7 0.00 0.15 0.08 59 1019.7
20260506222046 18 216 1.6 14.5 0.00 0.15 0.08 56 1019.7
20260506221553 18 170 1.6 14.5 0.00 0.15 0.08 58 1019.7
20260506221045 18 199 4.8 14.5 0.00 0.15 0.08 55 1019.9
20260506220548 18 213 3.2 9.7 0.00 0.15 0.08 58 1019.9
20260506220052 18 182 3.2 16.1 0.00 0.15 0.08 58 1020.0
20260506215545 18 0 6.4 16.1 0.00 0.15 0.08 55 1020.0
20260506215045 18 127 4.8 14.5 0.00 0.15 0.08 57 1020.0
20260506214607 18 168 1.6 14.5 0.00 0.15 0.08 56 1020.1
20260506214047 18 169 4.8 11.3 0.00 0.15 0.08 57 1020.1
20260506213548 18 147 3.2 14.5 0.00 0.15 0.08 58 1020.1
20260506213054 18 123 3.2 14.5 0.00 0.15 0.08 58 1020.2
20260506212546 18 188 3.2 12.9 0.00 0.15 0.08 59 1020.2
20260506212045 18 136 1.6 9.7 0.00 0.15 0.08 58 1020.2
20260506211551 18 154 3.2 11.3 0.00 0.15 0.08 59 1020.2
20260506211044 18 117 1.6 16.1 0.00 0.15 0.08 59 1020.2
20260506210546 17 191 1.6 17.7 0.03 0.15 0.08 62 1020.2
20260506210055 17 160 4.8 19.3 0.03 0.15 0.08 59 1020.2
20260506205545 17 150 4.8 19.3 0.03 0.18 0.08 59 1020.2
20260506205047 17 164 3.2 9.7 0.03 0.18 0.08 60 1020.2
20260506204559 17 124 3.2 19.3 0.03 0.18 0.08 59 1020.3
20260506204046 18 180 3.2 19.3 0.03 0.18 0.08 57 1020.2
20260506203545 18 165 1.6 14.5 0.03 0.18 0.08 59 1020.3
20260506203052 18 188 1.6 14.5 0.03 0.18 0.08 57 1020.4
20260506202545 18 153 4.8 14.5 0.03 0.18 0.08 58 1020.4
20260506202045 18 175 6.4 14.5 0.03 0.18 0.08 60 1020.5
20260506201600 18 118 1.6 9.7 0.03 0.18 0.08 61 1020.5
20260506201048 18 153 3.2 11.3 0.03 0.18 0.08 61 1020.5
20260506200546 17 193 3.2 11.3 0.00 0.15 0.05 58 1020.5
20260506200055 17 92 1.6 16.1 0.00 0.15 0.05 62 1020.6
20260506195545 17 205 4.8 20.9 0.00 0.15 0.05 61 1020.6
20260506195048 17 204 6.4 20.9 0.00 0.15 0.05 62 1020.6
20260506194604 17 194 3.2 16.1 0.00 0.15 0.05 62 1020.6
20260506194050 17 188 3.2 14.5 0.00 0.15 0.05 64 1020.7
20260506193548 17 181 3.2 14.5 0.00 0.15 0.05 65 1020.7
20260506193057 17 173 3.2 14.5 0.00 0.15 0.05 62 1020.8
20260506192545 16 0 1.6 16.1 0.00 0.15 0.05 65 1020.7
20260506192045 16 198 4.8 16.1 0.00 0.15 0.05 62 1020.8
20260506191553 16 53 3.2 12.9 0.00 0.15 0.05 63 1020.8
20260506191047 17 195 3.2 9.7 0.00 0.15 0.05 63 1020.6
20260506190629 17 161 4.8 14.5 0.00 0.15 0.05 62 1020.6
20260506190547 17 161 4.8 14.5 0.00 0.15 0.05 62 1020.6
20260506190058 16 142 3.2 17.7 0.00 0.15 0.05 63 1020.5
20260506185545 16 210 4.8 17.7 0.00 0.18 0.05 61 1020.5
20260506185045 17 166 4.8 14.5 0.00 0.18 0.05 58 1020.5
20260506184558 16 165 3.2 12.9 0.00 0.18 0.05 62 1020.6
20260506184045 16 200 6.4 12.9 0.00 0.18 0.05 59 1020.6
20260506183545 16 158 3.2 11.3 0.00 0.18 0.05 61 1020.6
20260506183100 16 0 1.6 12.9 0.00 0.18 0.05 63 1020.6
20260506182547 16 218 4.8 14.5 0.00 0.18 0.05 60 1020.7
20260506182044 16 186 3.2 14.5 0.00 0.18 0.05 61 1020.7
20260506181551 16 202 4.8 14.5 0.00 0.18 0.05 58 1020.7
20260506181045 16 143 4.8 11.3 0.00 0.18 0.05 61 1020.7
20260506180545 16 195 4.8 9.7 0.00 0.18 0.05 60 1020.7
20260506180055 16 195 0.0 8.0 0.00 0.18 0.05 62 1020.6
20260506175545 16 156 1.6 8.0 0.00 0.18 0.05 62 1020.6
20260506175049 16 173 3.2 8.0 0.00 0.18 0.05 62 1020.6
20260506174553 16 180 0.0 8.0 0.00 0.18 0.05 63 1020.6
20260506174050 15 0 1.6 8.0 0.00 0.18 0.05 63 1020.8
20260506173548 15 176 3.2 8.0 0.00 0.18 0.05 60 1020.8
20260506173051 15 0 1.6 6.4 0.00 0.18 0.05 65 1020.7
20260506172545 15 190 1.6 6.4 0.00 0.18 0.05 63 1020.7
20260506172048 15 178 0.0 6.4 0.00 0.18 0.05 68 1020.6
20260506171559 14 212 0.0 6.4 0.00 0.18 0.05 68 1020.6
20260506171047 14 77 0.0 6.4 0.00 0.18 0.05 68 1020.6
20260506170549 13 43 0.0 6.4 0.00 0.18 0.05 68 1020.6
20260506165545 13 0 1.6 8.0 0.00 0.20 0.05 70 1020.5
20260506165046 13 155 0.0 8.0 0.00 0.20 0.05 70 1020.3
20260506164600 13 225 1.6 8.0 0.00 0.20 0.05 70 1020.2
20260506164044 13 215 1.6 6.4 0.00 0.20 0.05 69 1020.2
20260506163544 13 167 0.0 4.8 0.00 0.20 0.05 71 1020.1
20260506163105 12 0 0.0 3.2 0.00 0.20 0.05 70 1020.1
20260506162546 12 0 0.0 6.4 0.00 0.20 0.05 75 1020.0
20260506162047 12 0 0.0 6.4 0.00 0.20 0.05 75 1020.0
20260506161553 11 206 0.0 1.6 0.03 0.20 0.05 80 1020.0
20260506161045 11 0 0.0 3.2 0.03 0.20 0.05 81 1019.9
20260506160545 10 0 0.0 3.2 0.03 0.20 0.05 83 1019.9
20260506160053 10 0 0.0 3.2 0.03 0.20 0.05 83 1019.8
20260506155546 9 0 0.0 1.6 0.03 0.20 0.05 87 1019.8
20260506155048 8 0 0.0 1.6 0.03 0.20 0.05 90 1019.8
20260506154612 8 0 0.0 3.2 0.03 0.20 0.05 91 1019.8
20260506154045 7 0 0.0 3.2 0.03 0.20 0.05 93 1019.7
20260506153544 7 102 0.0 3.2 0.03 0.20 0.05 96 1019.7
20260506153055 6 0 0.0 3.2 0.03 0.20 0.05 96 1019.6
20260506152545 6 0 0.0 1.6 0.03 0.20 0.05 96 1019.6
20260506152045 6 0 0.0 3.2 0.03 0.20 0.05 96 1019.6
20260506151551 6 110 0.0 3.2 0.00 0.18 0.03 96 1019.7
20260506151044 6 0 0.0 3.2 0.00 0.18 0.03 96 1019.7
20260506150547 5 0 0.0 4.8 0.00 0.18 0.03 96 1019.7
20260506150056 5 0 0.0 4.8 0.00 0.18 0.03 96 1019.6
20260506145547 5 0 0.0 4.8 0.00 0.20 0.03 96 1019.6
20260506145050 5 0 0.0 4.8 0.00 0.20 0.03 96 1019.6
20260506144600 5 0 0.0 3.2 0.00 0.20 0.03 96 1019.7
20260506144048 4 0 0.0 3.2 0.00 0.20 0.03 96 1019.6
20260506143548 4 0 0.0 3.2 0.00 0.20 0.03 96 1019.6
20260506143055 4 0 0.0 3.2 0.00 0.20 0.03 96 1019.5
20260506142551 3 249 0.0 3.2 0.00 0.20 0.03 95 1019.4
20260506142046 3 0 0.0 1.6 0.00 0.20 0.03 95 1019.5
20260506141603 3 0 0.0 1.6 0.00 0.20 0.03 95 1019.4
20260506141045 3 0 0.0 1.6 0.00 0.20 0.03 95 1019.4
20260506140545 3 0 0.0 1.6 0.00 0.20 0.03 95 1019.3
20260506140112 2 0 0.0 1.6 0.00 0.20 0.03 95 1019.4
20260506135547 2 0 0.0 0.0 0.00 0.23 0.03 95 1019.3
20260506135044 2 0 0.0 3.2 0.00 0.23 0.03 95 1019.3
20260506134553 2 0 0.0 3.2 0.00 0.23 0.03 94 1019.3
20260506134044 2 0 0.0 0.0 0.00 0.23 0.03 94 1019.3
20260506133545 2 0 0.0 0.0 0.00 0.23 0.03 94 1019.2
20260506133057 2 0 0.0 0.0 0.00 0.23 0.03 94 1019.2
20260506132544 2 0 0.0 1.6 0.00 0.23 0.03 94 1019.1
20260506132045 2 0 0.0 1.6 0.00 0.23 0.03 94 1019.1
20260506131556 2 0 0.0 1.6 0.00 0.23 0.03 94 1019.0
20260506131045 2 0 0.0 1.6 0.00 0.23 0.03 94 1019.0
20260506130545 2 0 0.0 1.6 0.00 0.23 0.03 94 1018.8
20260506130059 2 0 0.0 0.0 0.00 0.23 0.03 94 1018.8
20260506125545 2 0 0.0 0.0 0.00 0.25 0.03 94 1018.8
20260506125045 2 0 0.0 0.0 0.00 0.25 0.03 94 1018.7
20260506124558 2 0 0.0 0.0 0.00 0.25 0.03 94 1018.7
20260506124048 2 0 0.0 0.0 0.00 0.25 0.03 94 1018.6
20260506123548 2 0 0.0 0.0 0.00 0.25 0.03 94 1018.6
20260506123054 2 0 0.0 0.0 0.00 0.25 0.03 94 1018.6
20260506122545 2 0 0.0 0.0 0.00 0.25 0.03 94 1018.5
20260506122045 2 0 0.0 0.0 0.00 0.25 0.03 94 1018.5
20260506121550 2 0 0.0 0.0 0.00 0.25 0.03 94 1018.5
20260506121044 2 0 0.0 0.0 0.00 0.25 0.03 94 1018.6
20260506120545 2 0 0.0 0.0 0.00 0.25 0.03 94 1018.5
20260506120055 2 0 0.0 1.6 0.00 0.25 0.03 94 1018.5
20260506115545 2 0 0.0 1.6 0.00 0.28 0.03 94 1018.5
20260506115048 2 0 0.0 1.6 0.00 0.28 0.03 94 1018.5
20260506114600 2 0 0.0 1.6 0.00 0.28 0.03 94 1018.5
20260506114048 2 0 0.0 1.6 0.00 0.28 0.03 94 1018.5
20260506113545 2 0 0.0 1.6 0.00 0.28 0.03 94 1018.5
20260506113059 2 0 0.0 1.6 0.00 0.28 0.03 94 1018.5
20260506112544 2 0 0.0 0.0 0.00 0.28 0.03 94 1018.5
20260506112044 2 0 0.0 1.6 0.00 0.28 0.03 93 1018.5
20260506111602 2 0 0.0 1.6 0.00 0.28 0.03 93 1018.4
20260506111046 2 0 0.0 1.6 0.00 0.28 0.03 93 1018.5
20260506110545 2 0 0.0 0.0 0.00 0.28 0.03 93 1018.4
20260506110050 2 0 0.0 1.6 0.00 0.28 0.03 93 1018.4
20260506105545 2 0 0.0 3.2 0.00 0.30 0.03 93 1018.4
20260506105044 2 0 0.0 3.2 0.00 0.30 0.03 93 1018.3
20260506104557 2 0 0.0 1.6 0.00 0.30 0.03 93 1018.3
20260506104048 2 0 0.0 1.6 0.00 0.30 0.03 93 1018.3
20260506103545 3 0 0.0 1.6 0.00 0.30 0.03 93 1018.3
20260506103101 3 0 0.0 0.0 0.00 0.30 0.03 93 1018.3
20260506102547 3 0 0.0 0.0 0.00 0.30 0.03 93 1018.3
20260506102044 3 0 0.0 0.0 0.00 0.30 0.03 93 1018.3
20260506101553 3 0 0.0 1.6 0.00 0.30 0.03 93 1018.3
20260506101046 3 0 0.0 1.6 0.00 0.30 0.03 94 1018.3
20260506100544 3 0 0.0 1.6 0.00 0.30 0.03 93 1018.3
20260506100100 3 0 0.0 1.6 0.00 0.30 0.03 94 1018.3
20260506095545 3 0 0.0 1.6 0.00 0.30 0.03 93 1018.4
20260506095047 3 0 0.0 3.2 0.00 0.30 0.03 93 1018.4